contact:dominique.lefevre@mio.osupytheas.fr, maurice.libes@osupytheas.fr, didier.mallarino@osupytheas.fr
Project:EMSO http://www.emso-fr.org/EMSO-France
Depth: 2436.0 m
Title:EMSO Ligure Ouest : Data MII capteur MICROCAT
DateTime_Computer,Latitude,Longitude,Temperature,Conductivity,Pressure,DateTime_Instrument
DateTime_Computer,Latitude,Longitude,degC,S m-1,dbar,DateTime_Instrument
2022-02-26T00:01:38Z,42.805,6.029,13.3023,4.60125,2470.553,2022-2-26T02:03:12Z
2022-02-26T00:04:41Z,42.805,6.029,13.3013,4.60110,2470.567,2022-2-26T02:06:15Z
2022-02-26T00:07:44Z,42.805,6.029,13.3021,4.60099,2470.553,2022-2-26T02:09:18Z
2022-02-26T00:10:47Z,42.805,6.029,13.3025,4.60110,2470.553,2022-2-26T02:12:21Z
2022-02-26T00:13:50Z,42.805,6.029,13.3021,4.60087,2470.567,2022-2-26T02:15:25Z
2022-02-26T00:16:53Z,42.805,6.029,13.3032,4.60128,2470.544,2022-2-26T02:18:28Z
2022-02-26T00:19:56Z,42.805,6.029,13.3019,4.60138,2470.567,2022-2-26T02:21:31Z
2022-02-26T00:23:00Z,42.805,6.029,13.3028,4.60092,2470.553,2022-2-26T02:24:34Z
2022-02-26T00:26:03Z,42.805,6.029,13.3016,4.60096,2470.544,2022-2-26T02:27:37Z
2022-02-26T00:29:06Z,42.805,6.029,13.3029,4.60129,2470.544,2022-2-26T02:30:40Z
2022-02-26T00:32:09Z,42.805,6.029,13.3021,4.60127,2470.553,2022-2-26T02:33:43Z
2022-02-26T00:35:12Z,42.805,6.029,13.3019,4.60110,2470.567,2022-2-26T02:36:46Z
2022-02-26T00:38:15Z,42.805,6.029,13.3020,4.60154,2470.553,2022-2-26T02:39:50Z
2022-02-26T00:41:18Z,42.805,6.029,13.3017,4.60132,2470.553,2022-2-26T02:42:53Z
2022-02-26T00:44:21Z,42.805,6.029,13.3016,4.60129,2470.577,2022-2-26T02:45:56Z
2022-02-26T00:47:24Z,42.805,6.029,13.3026,4.60091,2470.53,2022-2-26T02:48:59Z
2022-02-26T00:50:28Z,42.805,6.029,13.3032,4.60116,2470.53,2022-2-26T02:52:02Z
2022-02-26T00:53:31Z,42.805,6.029,13.3040,4.60129,2470.553,2022-2-26T02:55:05Z
2022-02-26T00:56:34Z,42.805,6.029,13.3026,4.60164,2470.567,2022-2-26T02:58:08Z
2022-02-26T00:59:37Z,42.805,6.029,13.3021,4.60105,2470.577,2022-2-26T03:01:11Z
2022-02-26T01:02:40Z,42.805,6.029,13.3022,4.60114,2470.567,2022-2-26T03:04:15Z
2022-02-26T01:05:43Z,42.805,6.029,13.3026,4.60128,2470.553,2022-2-26T03:07:18Z
2022-02-26T01:08:46Z,42.805,6.029,13.3028,4.60113,2470.577,2022-2-26T03:10:21Z
2022-02-26T01:11:49Z,42.805,6.029,13.3021,4.60114,2470.53,2022-2-26T03:13:24Z
2022-02-26T01:14:53Z,42.805,6.029,13.3014,4.60111,2470.577,2022-2-26T03:16:27Z
2022-02-26T01:17:56Z,42.805,6.029,13.3021,4.60098,2470.591,2022-2-26T03:19:30Z
2022-02-26T01:20:59Z,42.805,6.029,13.3015,4.60101,2470.567,2022-2-26T03:22:33Z
2022-02-26T01:24:02Z,42.805,6.029,13.3018,4.60152,2470.577,2022-2-26T03:25:36Z
2022-02-26T01:27:05Z,42.805,6.029,13.3020,4.60120,2470.577,2022-2-26T03:28:40Z
2022-02-26T01:30:08Z,42.805,6.029,13.3047,4.60081,2470.577,2022-2-26T03:31:43Z
2022-02-26T01:33:11Z,42.805,6.029,13.3014,4.60102,2470.553,2022-2-26T03:34:46Z
2022-02-26T01:36:14Z,42.805,6.029,13.3024,4.60140,2470.553,2022-2-26T03:37:49Z
2022-02-26T01:39:18Z,42.805,6.029,13.3022,4.60123,2470.591,2022-2-26T03:40:52Z
2022-02-26T01:42:21Z,42.805,6.029,13.3022,4.60128,2470.591,2022-2-26T03:43:55Z
2022-02-26T01:45:24Z,42.805,6.029,13.3031,4.60139,2470.614,2022-2-26T03:46:58Z
2022-02-26T01:48:27Z,42.805,6.029,13.3011,4.60114,2470.614,2022-2-26T03:50:01Z
2022-02-26T01:51:30Z,42.805,6.029,13.3014,4.60110,2470.6,2022-2-26T03:53:05Z
2022-02-26T01:54:33Z,42.805,6.029,13.3015,4.60117,2470.6,2022-2-26T03:56:08Z
2022-02-26T01:57:36Z,42.805,6.029,13.3014,4.60119,2470.591,2022-2-26T03:59:11Z
2022-02-26T02:00:39Z,42.805,6.029,13.3036,4.60137,2470.614,2022-2-26T04:02:14Z
2022-02-26T02:03:43Z,42.805,6.029,13.3031,4.60120,2470.614,2022-2-26T04:05:17Z
2022-02-26T02:06:46Z,42.805,6.029,13.3046,4.60126,2470.614,2022-2-26T04:08:20Z
2022-02-26T02:09:49Z,42.805,6.029,13.3015,4.60127,2470.6,2022-2-26T04:11:23Z
2022-02-26T02:12:52Z,42.805,6.029,13.3026,4.60127,2470.6,2022-2-26T04:14:26Z
2022-02-26T02:15:55Z,42.805,6.029,13.3024,4.60117,2470.614,2022-2-26T04:17:29Z
2022-02-26T02:18:58Z,42.805,6.029,13.3019,4.60121,2470.624,2022-2-26T04:20:33Z
2022-02-26T02:22:01Z,42.805,6.029,13.3011,4.60102,2470.637,2022-2-26T04:23:36Z
2022-02-26T02:25:04Z,42.805,6.029,13.3018,4.60082,2470.637,2022-2-26T04:26:39Z
2022-02-26T02:28:08Z,42.805,6.029,13.3018,4.60105,2470.591,2022-2-26T04:29:42Z
2022-02-26T02:31:11Z,42.805,6.029,13.3015,4.60086,2470.614,2022-2-26T04:32:45Z
2022-02-26T02:34:14Z,42.805,6.029,13.3011,4.60088,2470.624,2022-2-26T04:35:48Z
2022-02-26T02:37:17Z,42.805,6.029,13.3012,4.60078,2470.637,2022-2-26T04:38:51Z
2022-02-26T02:40:20Z,42.805,6.029,13.3025,4.60089,2470.6,2022-2-26T04:41:54Z
2022-02-26T02:43:23Z,42.805,6.029,13.3011,4.60087,2470.6,2022-2-26T04:44:58Z
2022-02-26T02:46:26Z,42.805,6.029,13.3020,4.60063,2470.614,2022-2-26T04:48:01Z
2022-02-26T02:49:29Z,42.805,6.029,13.3036,4.60076,2470.6,2022-2-26T04:51:04Z
2022-02-26T02:52:33Z,42.805,6.029,13.3033,4.60084,2470.637,2022-2-26T04:54:07Z
2022-02-26T02:55:36Z,42.805,6.029,13.3036,4.60113,2470.637,2022-2-26T04:57:10Z
2022-02-26T02:58:39Z,42.805,6.029,13.3018,4.60120,2470.614,2022-2-26T05:00:13Z
2022-02-26T03:01:42Z,42.805,6.029,13.3011,4.60103,2470.6,2022-2-26T05:03:16Z
2022-02-26T03:04:45Z,42.805,6.029,13.3010,4.60089,2470.637,2022-2-26T05:06:19Z
2022-02-26T03:07:48Z,42.805,6.029,13.3028,4.60114,2470.624,2022-2-26T05:09:23Z
2022-02-26T03:10:51Z,42.805,6.029,13.3031,4.60117,2470.614,2022-2-26T05:12:26Z
2022-02-26T03:13:54Z,42.805,6.029,13.3020,4.60117,2470.6,2022-2-26T05:15:29Z
2022-02-26T03:16:58Z,42.805,6.029,13.3033,4.60108,2470.624,2022-2-26T05:18:32Z
2022-02-26T03:20:01Z,42.805,6.029,13.3019,4.60096,2470.624,2022-2-26T05:21:35Z
2022-02-26T03:23:04Z,42.805,6.029,13.3015,4.60080,2470.637,2022-2-26T05:24:38Z
2022-02-26T03:26:07Z,42.805,6.029,13.3015,4.60074,2470.624,2022-2-26T05:27:41Z
2022-02-26T03:29:10Z,42.805,6.029,13.3021,4.60087,2470.637,2022-2-26T05:30:44Z
2022-02-26T03:32:13Z,42.805,6.029,13.3007,4.60062,2470.637,2022-2-26T05:33:48Z
2022-02-26T03:35:16Z,42.805,6.029,13.3010,4.60064,2470.624,2022-2-26T05:36:51Z
2022-02-26T03:38:19Z,42.805,6.029,13.3034,4.60114,2470.624,2022-2-26T05:39:54Z
2022-02-26T03:41:22Z,42.805,6.029,13.3032,4.60089,2470.661,2022-2-26T05:42:57Z
2022-02-26T03:44:26Z,42.805,6.029,13.3038,4.60095,2470.624,2022-2-26T05:46:00Z
2022-02-26T03:47:29Z,42.805,6.029,13.3041,4.60096,2470.624,2022-2-26T05:49:03Z
2022-02-26T03:50:32Z,42.805,6.029,13.3040,4.60117,2470.6,2022-2-26T05:52:06Z
2022-02-26T03:53:35Z,42.805,6.029,13.3040,4.60117,2470.614,2022-2-26T05:55:09Z
2022-02-26T03:56:38Z,42.805,6.029,13.3054,4.60121,2470.624,2022-2-26T05:58:13Z
2022-02-26T03:59:41Z,42.805,6.029,13.3035,4.60132,2470.646,2022-2-26T06:01:16Z
2022-02-26T04:02:44Z,42.805,6.029,13.3033,4.60087,2470.637,2022-2-26T06:04:19Z
2022-02-26T04:05:47Z,42.805,6.029,13.3017,4.60080,2470.624,2022-2-26T06:07:22Z
2022-02-26T04:08:51Z,42.805,6.029,13.3023,4.60090,2470.637,2022-2-26T06:10:25Z
2022-02-26T04:11:54Z,42.805,6.029,13.3022,4.60086,2470.6,2022-2-26T06:13:28Z
2022-02-26T04:14:57Z,42.805,6.029,13.3012,4.60091,2470.661,2022-2-26T06:16:31Z
2022-02-26T04:18:00Z,42.805,6.029,13.3013,4.60103,2470.661,2022-2-26T06:19:34Z
2022-02-26T04:21:03Z,42.805,6.029,13.3012,4.60088,2470.624,2022-2-26T06:22:37Z
2022-02-26T04:24:06Z,42.805,6.029,13.3026,4.60101,2470.646,2022-2-26T06:25:41Z
2022-02-26T04:27:09Z,42.805,6.029,13.3056,4.60067,2470.614,2022-2-26T06:28:44Z
2022-02-26T04:30:12Z,42.805,6.029,13.3054,4.60114,2470.624,2022-2-26T06:31:47Z
2022-02-26T04:33:16Z,42.805,6.029,13.3069,4.60058,2470.67,2022-2-26T06:34:50Z
2022-02-26T04:36:19Z,42.805,6.029,13.3036,4.60121,2470.646,2022-2-26T06:37:53Z
2022-02-26T04:39:22Z,42.805,6.029,13.3069,4.60108,2470.637,2022-2-26T06:40:56Z
2022-02-26T04:42:25Z,42.805,6.029,13.3044,4.60120,2470.614,2022-2-26T06:43:59Z
2022-02-26T04:45:28Z,42.805,6.029,13.3040,4.60111,2470.661,2022-2-26T06:47:02Z
2022-02-26T04:48:31Z,42.805,6.029,13.3051,4.60092,2470.624,2022-2-26T06:50:06Z
2022-02-26T04:51:34Z,42.805,6.029,13.3070,4.60093,2470.661,2022-2-26T06:53:09Z
2022-02-26T04:54:37Z,42.805,6.029,13.3060,4.60140,2470.637,2022-2-26T06:56:12Z
2022-02-26T04:57:41Z,42.805,6.029,13.3041,4.60127,2470.661,2022-2-26T06:59:15Z
2022-02-26T05:00:44Z,42.805,6.029,13.3029,4.60097,2470.646,2022-2-26T07:02:18Z
2022-02-26T05:03:47Z,42.805,6.029,13.3063,4.60112,2470.646,2022-2-26T07:05:21Z
2022-02-26T05:06:50Z,42.805,6.029,13.3022,4.60101,2470.637,2022-2-26T07:08:24Z
2022-02-26T05:09:53Z,42.805,6.029,13.3019,4.60093,2470.624,2022-2-26T07:11:27Z
2022-02-26T05:12:56Z,42.805,6.029,13.3031,4.60090,2470.637,2022-2-26T07:14:31Z
2022-02-26T05:15:59Z,42.805,6.029,13.3054,4.60077,2470.624,2022-2-26T07:17:34Z
2022-02-26T05:19:02Z,42.805,6.029,13.3015,4.60067,2470.637,2022-2-26T07:20:37Z
2022-02-26T05:22:05Z,42.805,6.029,13.3043,4.60123,2470.624,2022-2-26T07:23:40Z
2022-02-26T05:25:09Z,42.805,6.029,13.3030,4.60087,2470.624,2022-2-26T07:26:43Z
2022-02-26T05:28:12Z,42.805,6.029,13.3052,4.60066,2470.637,2022-2-26T07:29:46Z
2022-02-26T05:31:15Z,42.805,6.029,13.3017,4.60102,2470.637,2022-2-26T07:32:49Z
2022-02-26T05:34:18Z,42.805,6.029,13.3034,4.60097,2470.624,2022-2-26T07:35:52Z
2022-02-26T05:37:21Z,42.805,6.029,13.3048,4.60081,2470.624,2022-2-26T07:38:56Z
2022-02-26T05:40:24Z,42.805,6.029,13.3025,4.60104,2470.624,2022-2-26T07:41:59Z
2022-02-26T05:43:27Z,42.805,6.029,13.3042,4.60084,2470.6,2022-2-26T07:45:02Z
2022-02-26T05:46:30Z,42.805,6.029,13.3056,4.60066,2470.637,2022-2-26T07:48:05Z
2022-02-26T05:49:34Z,42.805,6.029,13.3041,4.60070,2470.624,2022-2-26T07:51:08Z
2022-02-26T05:52:37Z,42.805,6.029,13.3047,4.60089,2470.637,2022-2-26T07:54:11Z
2022-02-26T05:55:40Z,42.805,6.029,13.3020,4.60083,2470.661,2022-2-26T07:57:14Z
2022-02-26T05:58:43Z,42.805,6.029,13.3030,4.60073,2470.6,2022-2-26T08:00:17Z
2022-02-26T06:01:46Z,42.805,6.029,13.3047,4.60044,2470.646,2022-2-26T08:03:21Z
2022-02-26T06:04:49Z,42.805,6.029,13.3024,4.60074,2470.6,2022-2-26T08:06:24Z
2022-02-26T06:07:52Z,42.805,6.029,13.3042,4.60068,2470.637,2022-2-26T08:09:27Z
2022-02-26T06:10:55Z,42.805,6.029,13.3024,4.60079,2470.6,2022-2-26T08:12:30Z
2022-02-26T06:13:59Z,42.805,6.029,13.3035,4.60078,2470.661,2022-2-26T08:15:33Z
2022-02-26T06:17:02Z,42.805,6.029,13.3019,4.60107,2470.614,2022-2-26T08:18:36Z
2022-02-26T06:20:05Z,42.805,6.029,13.3091,4.60115,2470.624,2022-2-26T08:21:39Z
2022-02-26T06:23:08Z,42.805,6.029,13.3066,4.60130,2470.591,2022-2-26T08:24:42Z
2022-02-26T06:26:11Z,42.805,6.029,13.3055,4.60088,2470.624,2022-2-26T08:27:46Z
2022-02-26T06:29:14Z,42.805,6.029,13.3034,4.60053,2470.624,2022-2-26T08:30:49Z
2022-02-26T06:32:17Z,42.805,6.029,13.3047,4.60089,2470.591,2022-2-26T08:33:52Z
2022-02-26T06:35:20Z,42.805,6.029,13.3038,4.60069,2470.624,2022-2-26T08:36:55Z
2022-02-26T06:38:24Z,42.805,6.029,13.3025,4.60097,2470.614,2022-2-26T08:39:58Z
2022-02-26T06:41:27Z,42.805,6.029,13.3044,4.60110,2470.6,2022-2-26T08:43:01Z
2022-02-26T06:44:30Z,42.805,6.029,13.3025,4.60122,2470.624,2022-2-26T08:46:04Z
2022-02-26T06:47:33Z,42.805,6.029,13.3054,4.60099,2470.6,2022-2-26T08:49:07Z
2022-02-26T06:50:36Z,42.805,6.029,13.3046,4.60129,2470.624,2022-2-26T08:52:11Z
2022-02-26T06:53:39Z,42.805,6.029,13.3039,4.60123,2470.6,2022-2-26T08:55:14Z
2022-02-26T06:56:42Z,42.805,6.029,13.3028,4.60135,2470.6,2022-2-26T08:58:17Z
2022-02-26T06:59:45Z,42.805,6.029,13.3059,4.60122,2470.614,2022-2-26T09:01:20Z
2022-02-26T07:02:49Z,42.805,6.029,13.3047,4.60125,2470.577,2022-2-26T09:04:23Z
2022-02-26T07:05:52Z,42.805,6.029,13.3047,4.60135,2470.6,2022-2-26T09:07:26Z
2022-02-26T07:08:55Z,42.805,6.029,13.3058,4.60070,2470.577,2022-2-26T09:10:29Z
2022-02-26T07:11:58Z,42.805,6.029,13.3049,4.60095,2470.591,2022-2-26T09:13:32Z
2022-02-26T07:15:01Z,42.805,6.029,13.3020,4.60075,2470.577,2022-2-26T09:16:35Z
2022-02-26T07:18:04Z,42.805,6.029,13.3036,4.60052,2470.624,2022-2-26T09:19:39Z
2022-02-26T07:21:08Z,42.805,6.029,13.3041,4.60075,2470.614,2022-2-26T09:22:42Z
2022-02-26T07:24:11Z,42.805,6.029,13.3047,4.60104,2470.614,2022-2-26T09:25:46Z
2022-02-26T07:27:14Z,42.805,6.029,13.3068,4.60117,2470.591,2022-2-26T09:28:49Z
2022-02-26T07:30:17Z,42.805,6.029,13.3024,4.60127,2470.591,2022-2-26T09:31:52Z
2022-02-26T07:33:21Z,42.805,6.029,13.3031,4.60131,2470.591,2022-2-26T09:34:55Z
2022-02-26T07:36:24Z,42.805,6.029,13.3084,4.60135,2470.577,2022-2-26T09:37:58Z
2022-02-26T07:39:27Z,42.805,6.029,13.3043,4.60134,2470.577,2022-2-26T09:41:01Z
2022-02-26T07:42:30Z,42.805,6.029,13.3043,4.60126,2470.553,2022-2-26T09:44:04Z
2022-02-26T07:45:33Z,42.805,6.029,13.3026,4.60117,2470.6,2022-2-26T09:47:07Z
2022-02-26T07:48:36Z,42.805,6.029,13.3029,4.60108,2470.577,2022-2-26T09:50:11Z
2022-02-26T07:51:39Z,42.805,6.029,13.3045,4.60122,2470.577,2022-2-26T09:53:14Z
2022-02-26T07:54:42Z,42.805,6.029,13.3051,4.60114,2470.553,2022-2-26T09:56:17Z
2022-02-26T07:57:45Z,42.805,6.029,13.3043,4.60064,2470.53,2022-2-26T09:59:20Z
2022-02-26T08:00:49Z,42.805,6.029,13.3045,4.60102,2470.624,2022-2-26T10:02:23Z
2022-02-26T08:03:52Z,42.805,6.029,13.3032,4.60069,2470.6,2022-2-26T10:05:26Z
2022-02-26T08:06:55Z,42.805,6.029,13.3069,4.60125,2470.553,2022-2-26T10:08:29Z
2022-02-26T08:09:58Z,42.805,6.029,13.3040,4.60057,2470.567,2022-2-26T10:11:32Z
2022-02-26T08:13:01Z,42.805,6.029,13.3043,4.60064,2470.591,2022-2-26T10:14:36Z
2022-02-26T08:16:04Z,42.805,6.029,13.3024,4.60094,2470.591,2022-2-26T10:17:39Z
2022-02-26T08:19:07Z,42.805,6.029,13.3016,4.60092,2470.567,2022-2-26T10:20:42Z
2022-02-26T08:22:11Z,42.805,6.029,13.3049,4.60123,2470.553,2022-2-26T10:23:45Z
2022-02-26T08:25:14Z,42.805,6.029,13.3015,4.60075,2470.591,2022-2-26T10:26:48Z
2022-02-26T08:28:17Z,42.805,6.029,13.3040,4.60074,2470.553,2022-2-26T10:29:51Z
2022-02-26T08:31:20Z,42.805,6.029,13.3038,4.60080,2470.577,2022-2-26T10:32:54Z
2022-02-26T08:34:23Z,42.805,6.029,13.3046,4.60074,2470.544,2022-2-26T10:35:57Z
2022-02-26T08:37:26Z,42.805,6.029,13.3039,4.60060,2470.553,2022-2-26T10:39:01Z
2022-02-26T08:40:29Z,42.805,6.029,13.3019,4.60062,2470.567,2022-2-26T10:42:04Z
2022-02-26T08:43:32Z,42.805,6.029,13.3024,4.60069,2470.558,2022-2-26T10:45:07Z
2022-02-26T08:46:36Z,42.805,6.029,13.3015,4.60060,2470.53,2022-2-26T10:48:10Z
2022-02-26T08:49:39Z,42.805,6.029,13.3018,4.60058,2470.591,2022-2-26T10:51:13Z
2022-02-26T08:52:42Z,42.805,6.029,13.3009,4.60054,2470.553,2022-2-26T10:54:16Z
2022-02-26T08:55:45Z,42.805,6.029,13.3031,4.60067,2470.553,2022-2-26T10:57:19Z
2022-02-26T08:58:48Z,42.805,6.029,13.3028,4.60070,2470.591,2022-2-26T11:00:22Z
2022-02-26T09:01:51Z,42.805,6.029,13.3035,4.60062,2470.567,2022-2-26T11:03:26Z
2022-02-26T09:04:54Z,42.805,6.029,13.3022,4.60070,2470.567,2022-2-26T11:06:29Z
2022-02-26T09:07:57Z,42.805,6.029,13.3026,4.60052,2470.567,2022-2-26T11:09:32Z
2022-02-26T09:11:01Z,42.805,6.029,13.3021,4.60057,2470.567,2022-2-26T11:12:35Z
2022-02-26T09:14:04Z,42.805,6.029,13.3021,4.60069,2470.553,2022-2-26T11:15:38Z
2022-02-26T09:17:07Z,42.805,6.029,13.3029,4.60059,2470.53,2022-2-26T11:18:41Z
2022-02-26T09:20:10Z,42.805,6.029,13.3015,4.60059,2470.544,2022-2-26T11:21:44Z
2022-02-26T09:23:13Z,42.805,6.029,13.3024,4.60065,2470.567,2022-2-26T11:24:47Z
2022-02-26T09:26:16Z,42.805,6.029,13.3026,4.60067,2470.544,2022-2-26T11:27:51Z
2022-02-26T09:29:19Z,42.805,6.029,13.3028,4.60059,2470.553,2022-2-26T11:30:54Z
2022-02-26T09:32:22Z,42.805,6.029,13.3031,4.60054,2470.544,2022-2-26T11:33:57Z
2022-02-26T09:35:26Z,42.805,6.029,13.3030,4.60064,2470.553,2022-2-26T11:37:00Z
2022-02-26T09:38:29Z,42.805,6.029,13.3047,4.60061,2470.544,2022-2-26T11:40:03Z
2022-02-26T09:41:32Z,42.805,6.029,13.3031,4.60064,2470.553,2022-2-26T11:43:06Z
2022-02-26T09:44:35Z,42.805,6.029,13.3038,4.60050,2470.553,2022-2-26T11:46:09Z
2022-02-26T09:47:38Z,42.805,6.029,13.3036,4.60064,2470.544,2022-2-26T11:49:12Z
2022-02-26T09:50:41Z,42.805,6.029,13.3036,4.60065,2470.53,2022-2-26T11:52:16Z
2022-02-26T09:53:44Z,42.805,6.029,13.3034,4.60072,2470.53,2022-2-26T11:55:19Z
2022-02-26T09:56:47Z,42.805,6.029,13.3026,4.60062,2470.553,2022-2-26T11:58:22Z
2022-02-26T09:59:51Z,42.805,6.029,13.3025,4.60069,2470.577,2022-2-26T12:01:25Z
2022-02-26T10:02:54Z,42.805,6.029,13.3035,4.60075,2470.553,2022-2-26T12:04:28Z
2022-02-26T10:05:57Z,42.805,6.029,13.3050,4.60064,2470.567,2022-2-26T12:07:31Z
2022-02-26T10:09:00Z,42.805,6.029,13.3036,4.60074,2470.567,2022-2-26T12:10:34Z
2022-02-26T10:12:03Z,42.805,6.029,13.3048,4.60063,2470.53,2022-2-26T12:13:38Z
2022-02-26T10:15:06Z,42.805,6.029,13.3041,4.60057,2470.544,2022-2-26T12:16:41Z
2022-02-26T10:18:09Z,42.805,6.029,13.3035,4.60049,2470.567,2022-2-26T12:19:44Z
2022-02-26T10:21:12Z,42.805,6.029,13.3035,4.60049,2470.544,2022-2-26T12:22:47Z
2022-02-26T10:24:16Z,42.805,6.029,13.3031,4.60057,2470.53,2022-2-26T12:25:50Z
2022-02-26T10:27:19Z,42.805,6.029,13.3031,4.60042,2470.567,2022-2-26T12:28:53Z
2022-02-26T10:30:22Z,42.805,6.029,13.3041,4.60045,2470.591,2022-2-26T12:31:56Z
2022-02-26T10:33:25Z,42.805,6.029,13.3029,4.60057,2470.53,2022-2-26T12:34:59Z
2022-02-26T10:36:28Z,42.805,6.029,13.3034,4.60067,2470.544,2022-2-26T12:38:03Z
2022-02-26T10:39:31Z,42.805,6.029,13.3061,4.60064,2470.516,2022-2-26T12:41:06Z
2022-02-26T10:42:34Z,42.805,6.029,13.3027,4.60056,2470.544,2022-2-26T12:44:09Z
2022-02-26T10:45:37Z,42.805,6.029,13.3058,4.60057,2470.544,2022-2-26T12:47:12Z
2022-02-26T10:48:41Z,42.805,6.029,13.3021,4.60055,2470.544,2022-2-26T12:50:15Z
2022-02-26T10:51:44Z,42.805,6.029,13.3026,4.60049,2470.53,2022-2-26T12:53:18Z
2022-02-26T10:54:47Z,42.805,6.029,13.3029,4.60062,2470.52,2022-2-26T12:56:21Z
2022-02-26T10:57:50Z,42.805,6.029,13.3029,4.60039,2470.53,2022-2-26T12:59:24Z
2022-02-26T11:00:53Z,42.805,6.029,13.3036,4.60051,2470.544,2022-2-26T13:02:28Z
2022-02-26T11:03:56Z,42.805,6.029,13.3036,4.60059,2470.544,2022-2-26T13:05:31Z
2022-02-26T11:06:59Z,42.805,6.029,13.3033,4.60062,2470.507,2022-2-26T13:08:34Z
2022-02-26T11:10:02Z,42.805,6.029,13.3036,4.60080,2470.544,2022-2-26T13:11:37Z
2022-02-26T11:13:06Z,42.805,6.029,13.3028,4.60067,2470.544,2022-2-26T13:14:40Z
2022-02-26T11:16:09Z,42.805,6.029,13.3046,4.60086,2470.544,2022-2-26T13:17:43Z
2022-02-26T11:19:12Z,42.805,6.029,13.3024,4.60066,2470.52,2022-2-26T13:20:46Z
2022-02-26T11:22:15Z,42.805,6.029,13.3043,4.60067,2470.544,2022-2-26T13:23:49Z
2022-02-26T11:25:18Z,42.805,6.029,13.3045,4.60067,2470.507,2022-2-26T13:26:53Z
2022-02-26T11:28:21Z,42.805,6.029,13.3034,4.60061,2470.52,2022-2-26T13:29:56Z
2022-02-26T11:31:24Z,42.805,6.029,13.3047,4.60068,2470.507,2022-2-26T13:32:59Z
2022-02-26T11:34:27Z,42.805,6.029,13.3042,4.60059,2470.507,2022-2-26T13:36:02Z
2022-02-26T11:37:31Z,42.805,6.029,13.3042,4.60060,2470.544,2022-2-26T13:39:05Z
2022-02-26T11:40:34Z,42.805,6.029,13.3039,4.60077,2470.52,2022-2-26T13:42:08Z
2022-02-26T11:43:37Z,42.805,6.029,13.3029,4.60058,2470.497,2022-2-26T13:45:11Z
2022-02-26T11:46:40Z,42.805,6.029,13.3030,4.60060,2470.53,2022-2-26T13:48:14Z
2022-02-26T11:49:43Z,42.805,6.029,13.3036,4.60057,2470.53,2022-2-26T13:51:18Z
2022-02-26T11:52:46Z,42.805,6.029,13.3048,4.60061,2470.507,2022-2-26T13:54:21Z
2022-02-26T11:55:49Z,42.805,6.029,13.3031,4.60069,2470.507,2022-2-26T13:57:24Z
2022-02-26T11:58:53Z,42.805,6.029,13.3062,4.60063,2470.52,2022-2-26T14:00:27Z
2022-02-26T12:01:56Z,42.805,6.029,13.3057,4.60069,2470.544,2022-2-26T14:03:30Z
2022-02-26T12:04:59Z,42.805,6.029,13.3048,4.60060,2470.53,2022-2-26T14:06:33Z
2022-02-26T12:08:02Z,42.805,6.029,13.3048,4.60051,2470.544,2022-2-26T14:09:36Z
2022-02-26T12:11:05Z,42.805,6.029,13.3054,4.60055,2470.544,2022-2-26T14:12:39Z
2022-02-26T12:14:08Z,42.805,6.029,13.3041,4.60062,2470.52,2022-2-26T14:15:43Z
2022-02-26T12:17:11Z,42.805,6.029,13.3044,4.60074,2470.507,2022-2-26T14:18:46Z
2022-02-26T12:20:14Z,42.805,6.029,13.3047,4.60067,2470.544,2022-2-26T14:21:49Z
2022-02-26T12:23:18Z,42.805,6.029,13.3073,4.60059,2470.544,2022-2-26T14:24:52Z
2022-02-26T12:26:21Z,42.805,6.029,13.3041,4.60072,2470.53,2022-2-26T14:27:55Z
2022-02-26T12:29:24Z,42.805,6.029,13.3046,4.60070,2470.53,2022-2-26T14:30:58Z
2022-02-26T12:32:27Z,42.805,6.029,13.3043,4.60067,2470.544,2022-2-26T14:34:01Z
2022-02-26T12:35:30Z,42.805,6.029,13.3041,4.60085,2470.544,2022-2-26T14:37:04Z
2022-02-26T12:38:33Z,42.805,6.029,13.3056,4.60081,2470.52,2022-2-26T14:40:08Z
2022-02-26T12:41:36Z,42.805,6.029,13.3019,4.60067,2470.544,2022-2-26T14:43:11Z
2022-02-26T12:44:39Z,42.805,6.029,13.3039,4.60059,2470.553,2022-2-26T14:46:14Z
2022-02-26T12:47:43Z,42.805,6.029,13.3052,4.60069,2470.544,2022-2-26T14:49:17Z
2022-02-26T12:50:46Z,42.805,6.029,13.3042,4.60060,2470.507,2022-2-26T14:52:20Z
2022-02-26T12:53:49Z,42.805,6.029,13.3030,4.60062,2470.53,2022-2-26T14:55:23Z
2022-02-26T12:56:52Z,42.805,6.029,13.3046,4.60060,2470.544,2022-2-26T14:58:26Z
2022-02-26T12:59:55Z,42.805,6.029,13.3071,4.60069,2470.544,2022-2-26T15:01:29Z
2022-02-26T13:02:58Z,42.805,6.029,13.3064,4.60075,2470.53,2022-2-26T15:04:33Z
2022-02-26T13:06:01Z,42.805,6.029,13.3041,4.60087,2470.52,2022-2-26T15:07:36Z
2022-02-26T13:09:04Z,42.805,6.029,13.3054,4.60054,2470.507,2022-2-26T15:10:39Z
2022-02-26T13:12:08Z,42.805,6.029,13.3079,4.60059,2470.53,2022-2-26T15:13:42Z
2022-02-26T13:15:11Z,42.805,6.029,13.3073,4.60095,2470.53,2022-2-26T15:16:45Z
2022-02-26T13:18:14Z,42.805,6.029,13.3021,4.60098,2470.53,2022-2-26T15:19:48Z
2022-02-26T13:21:17Z,42.805,6.029,13.3055,4.60097,2470.52,2022-2-26T15:22:51Z
2022-02-26T13:24:20Z,42.805,6.029,13.3048,4.60067,2470.507,2022-2-26T15:25:55Z
2022-02-26T13:27:23Z,42.805,6.029,13.3046,4.60080,2470.497,2022-2-26T15:28:58Z
2022-02-26T13:30:26Z,42.805,6.029,13.3080,4.60092,2470.52,2022-2-26T15:32:01Z
2022-02-26T13:33:29Z,42.805,6.029,13.3109,4.60095,2470.52,2022-2-26T15:35:04Z
2022-02-26T13:36:33Z,42.805,6.029,13.3087,4.60087,2470.567,2022-2-26T15:38:07Z
2022-02-26T13:39:36Z,42.805,6.029,13.3061,4.60086,2470.544,2022-2-26T15:41:10Z
2022-02-26T13:42:39Z,42.805,6.029,13.3065,4.60086,2470.544,2022-2-26T15:44:13Z
2022-02-26T13:45:42Z,42.805,6.029,13.3089,4.60070,2470.553,2022-2-26T15:47:16Z
2022-02-26T13:48:45Z,42.805,6.029,13.3085,4.60055,2470.53,2022-2-26T15:50:20Z
2022-02-26T13:51:48Z,42.805,6.029,13.3063,4.60086,2470.53,2022-2-26T15:53:23Z
2022-02-26T13:54:51Z,42.805,6.029,13.3054,4.60084,2470.544,2022-2-26T15:56:26Z
2022-02-26T13:57:54Z,42.805,6.029,13.3075,4.60068,2470.567,2022-2-26T15:59:29Z
2022-02-26T14:00:58Z,42.805,6.029,13.3047,4.60066,2470.52,2022-2-26T16:02:32Z
2022-02-26T14:04:01Z,42.805,6.029,13.3055,4.60072,2470.591,2022-2-26T16:05:35Z
2022-02-26T14:07:04Z,42.805,6.029,13.3060,4.60052,2470.52,2022-2-26T16:08:38Z
2022-02-26T14:10:07Z,42.805,6.029,13.3068,4.60044,2470.52,2022-2-26T16:11:41Z
2022-02-26T14:13:10Z,42.805,6.029,13.3066,4.60049,2470.567,2022-2-26T16:14:45Z
2022-02-26T14:16:13Z,42.805,6.029,13.3074,4.60053,2470.544,2022-2-26T16:17:48Z
2022-02-26T14:19:16Z,42.805,6.029,13.3053,4.60049,2470.53,2022-2-26T16:20:51Z
2022-02-26T14:22:20Z,42.805,6.029,13.3046,4.60058,2470.567,2022-2-26T16:23:54Z
2022-02-26T14:25:23Z,42.805,6.029,13.3039,4.60063,2470.53,2022-2-26T16:26:57Z
2022-02-26T14:28:26Z,42.805,6.029,13.3043,4.60057,2470.567,2022-2-26T16:30:00Z
2022-02-26T14:31:29Z,42.805,6.029,13.3043,4.60052,2470.567,2022-2-26T16:33:03Z
2022-02-26T14:34:32Z,42.805,6.029,13.3060,4.60066,2470.553,2022-2-26T16:36:06Z
2022-02-26T14:37:35Z,42.805,6.029,13.3056,4.60062,2470.591,2022-2-26T16:39:10Z
2022-02-26T14:40:38Z,42.805,6.029,13.3027,4.60082,2470.567,2022-2-26T16:42:13Z
2022-02-26T14:43:41Z,42.805,6.029,13.3030,4.60125,2470.53,2022-2-26T16:45:16Z
2022-02-26T14:46:45Z,42.805,6.029,13.3048,4.60129,2470.567,2022-2-26T16:48:19Z
2022-02-26T14:49:48Z,42.805,6.029,13.3051,4.60109,2470.53,2022-2-26T16:51:22Z
2022-02-26T14:52:51Z,42.805,6.029,13.3046,4.60092,2470.53,2022-2-26T16:54:25Z
2022-02-26T14:55:54Z,42.805,6.029,13.3019,4.60089,2470.53,2022-2-26T16:57:28Z
2022-02-26T14:58:57Z,42.805,6.029,13.3043,4.60097,2470.567,2022-2-26T17:00:32Z
2022-02-26T15:02:00Z,42.805,6.029,13.3026,4.60129,2470.53,2022-2-26T17:03:35Z
2022-02-26T15:05:03Z,42.805,6.029,13.3048,4.60093,2470.604,2022-2-26T17:06:38Z
2022-02-26T15:08:06Z,42.805,6.029,13.3076,4.60109,2470.591,2022-2-26T17:09:41Z
2022-02-26T15:11:10Z,42.805,6.029,13.3058,4.60099,2470.52,2022-2-26T17:12:44Z
2022-02-26T15:14:13Z,42.805,6.029,13.3061,4.60100,2470.567,2022-2-26T17:15:47Z